Waverly, WV

3:16 PM EDT on July 28, 2016 (GMT -0400)
Wood County Wilson

Weather History for KPKB - April, 2013

Change the Weather History Date:

Tuesday, April 2, 2013

  Actual Average Record
Temperature  
Mean Temperature 36 °F 50 °F  
Max Temperature 46 °F 61 °F 88 °F (2010)
Min Temperature 26 °F 38 °F 21 °F (1922)
Degree Days  
Heating Degree Days 29 16  
Month to date heating degree days 53 32  
Since 1 July heating degree days 4601 4493  
Cooling Degree Days 0 0  
Month to date cooling degree days 0 0  
Year to date cooling degree days 0 3  
Moisture  
Dew Point 12 °F    
Average Humidity 39    
Maximum Humidity 53    
Minimum Humidity 25    
Precipitation  
Precipitation 0.00 in 0.11 in 0.85 in (2005)
Month to date precipitation T 0.23  
Year to date precipitation 8.21 9.61  
Sea Level Pressure  
Sea Level Pressure 30.21 in    
Wind  
Wind Speed 6 mph (WNW)    
Max Wind Speed 18 mph    
Max Gust Speed 25 mph    
Visibility 10 miles    
Events      
T = Trace of Precipitation, MM = Missing Value Source: NWS Daily Summary

Daily Weather History Graph

Daily Weather History Graph

Search for Another Location

Airport or City:

Trip Planner

Search our weather history database for the weather conditions in past years. The results will help you decide how hot, cold, wet, or windy it might be!

Date:

Astronomy

Apr. 02, 2013 Rise Set
Actual Time 7:08 AM EDT 7:50 PM EDT
Civil Twilight 6:41 AM EDT 8:18 PM EDT
Nautical Twilight 6:09 AM EDT 8:50 PM EDT
Astronomical Twilight 5:36 AM EDT 9:23 PM EDT
Moon 1:53 AM EDT (4/2) 11:59 AM EDT (4/2)
Length of Visible Light 13h 36m
Length of Day
12h 42m
Waning Gibbous, 56% of the Moon is Illuminated
Apr 2
Waning Gibbous
Apr 3
Last Quarter
Apr 10
New
Apr 18
First Quarter
Apr 25
Full

Hourly Weather History & Observations

Time (EDT) Temp. Windchill Dew Point Humidity Pressure Visibility Wind Dir Wind Speed Gust Speed Precip Events Conditions
12:53 AM 33.1 °F 27.7 °F 17.1 °F 52% 30.12 in 10.0 mi WNW 5.8 mph - N/A   Clear
1:53 AM 32.0 °F 26.4 °F 15.1 °F 50% 30.12 in 10.0 mi NW 5.8 mph - N/A   Clear
2:53 AM 30.9 °F 26.2 °F 14.0 °F 50% 30.13 in 10.0 mi NW 4.6 mph - N/A   Clear
3:53 AM 30.0 °F 26.5 °F 12.9 °F 49% 30.14 in 10.0 mi NW 3.5 mph - N/A   Clear
4:53 AM 28.0 °F 20.8 °F 14.0 °F 56% 30.15 in 10.0 mi NW 6.9 mph - N/A   Clear
5:53 AM 28.0 °F 24.2 °F 10.9 °F 49% 30.17 in 10.0 mi West 3.5 mph - N/A   Clear
6:53 AM 27.0 °F 19.5 °F 10.9 °F 51% 30.21 in 10.0 mi WNW 6.9 mph - N/A   Clear
7:53 AM 27.0 °F 21.6 °F 10.0 °F 49% 30.25 in 10.0 mi WNW 4.6 mph - N/A   Clear
8:53 AM 30.0 °F 24.1 °F 10.9 °F 45% 30.27 in 10.0 mi WNW 5.8 mph - N/A   Clear
9:53 AM 30.9 °F - 10.0 °F 42% 30.27 in 10.0 mi Calm Calm - N/A   Clear
10:53 AM 35.1 °F 31.0 °F 10.9 °F 37% 30.28 in 10.0 mi West 4.6 mph - N/A   Clear
11:53 AM 37.0 °F 28.5 °F 9.0 °F 31% 30.28 in 10.0 mi West 13.8 mph 19.6 mph N/A   Clear
12:53 PM 39.9 °F 35.1 °F 10.0 °F 29% 30.26 in 10.0 mi West 6.9 mph 16.1 mph N/A   Clear
1:53 PM 42.1 °F 37.7 °F 10.0 °F 27% 30.24 in 10.0 mi Variable 6.9 mph 19.6 mph N/A   Partly Cloudy
2:53 PM 43.0 °F 36.8 °F 10.0 °F 26% 30.21 in 10.0 mi West 11.5 mph 25.3 mph N/A   Clear
3:53 PM 44.1 °F 40.1 °F 10.9 °F 26% 30.19 in 10.0 mi Variable 6.9 mph 18.4 mph N/A   Partly Cloudy
4:53 PM 44.1 °F 37.7 °F 10.9 °F 26% 30.19 in 10.0 mi WNW 12.7 mph 21.9 mph N/A   Scattered Clouds
5:53 PM 45.0 °F 40.6 °F 12.0 °F 26% 30.19 in 10.0 mi West 8.1 mph 23.0 mph N/A   Scattered Clouds
6:53 PM 44.1 °F 38.1 °F 10.9 °F 26% 30.21 in 10.0 mi West 11.5 mph - N/A   Partly Cloudy
7:53 PM 41.0 °F 35.2 °F 12.0 °F 31% 30.21 in 10.0 mi West 9.2 mph - N/A   Clear
8:53 PM 39.0 °F 35.7 °F 12.0 °F 33% 30.23 in 10.0 mi WNW 4.6 mph - N/A   Clear
9:53 PM 37.0 °F 34.5 °F 12.9 °F 37% 30.25 in 10.0 mi WNW 3.5 mph - N/A   Clear
10:53 PM 35.1 °F 31.0 °F 12.9 °F 40% 30.27 in 10.0 mi NW 4.6 mph - N/A   Clear
11:53 PM 34.0 °F - 14.0 °F 44% 30.27 in 10.0 mi Calm Calm - N/A   Clear